Date String (YYYY-MM-DD hh:mm:ss) UTC,Instrument flags,Ambient pressure (hPa),Sample flow (lpm),Bypass flow (lpm),Sample temperature (°C),Ambient temperature (°C),ASC tube jacket temperature (°C),LED temperature (°C),Box temperature (°C),Sample RH (%),Span deviation,Mass concentration (μg/m³),Mass concentration (μg/m³),Mass concentration (μg/m³)
DateTimeUTC,F1_M11,P_M11,Q1_M11,Q2_M11,T1_M11,T2_M11,T3_M11,T4_M11,T5_M11,U1_M11,ZSPAN_M11,X2_M11,X0_M11,X1_M11
2023-04-22 15:00:00,,0834.4,5.00,0.00,22.7,21.2,00.0,31.1,24.1,13.0,0000.0,0006.37,0009.44,0005.72
2023-04-22 15:01:00,,0834.4,5.01,0.00,22.7,21.1,00.0,31.1,24.1,13.0,0000.0,0006.37,0010.01,0005.73
2023-04-22 15:02:00,,0834.4,5.01,0.00,22.6,21.1,00.0,31.1,24.1,13.1,0000.0,0006.36,0009.89,0005.75
2023-04-22 15:03:00,,0834.4,5.01,0.00,22.6,21.1,00.0,31.1,24.1,13.1,0000.0,0006.41,0009.96,0005.78
2023-04-22 15:04:00,,0834.4,5.00,0.00,22.6,21.1,00.0,31.1,24.1,13.3,0000.0,0006.44,0010.04,0005.80
2023-04-22 15:05:00,,0834.4,4.99,0.00,22.6,21.1,00.0,31.0,24.0,13.3,0000.0,0006.46,0010.08,0005.82
2023-04-22 15:06:00,,0834.4,4.99,0.00,22.6,21.0,00.0,31.0,24.0,13.3,0000.0,0006.45,0009.98,0005.83
2023-04-22 15:07:00,,0834.4,4.99,0.00,22.6,21.0,00.0,31.0,24.0,13.3,0000.0,0006.51,0011.01,0005.86
2023-04-22 15:08:00,,0834.4,5.01,0.00,22.6,21.4,00.0,31.0,24.2,13.4,0000.0,0006.55,0011.75,0005.88
2023-04-22 15:09:00,,0834.5,5.01,0.00,22.7,22.4,00.0,30.9,24.6,13.4,0000.0,0006.59,0011.75,0005.91
2023-04-22 15:10:00,,0834.5,4.99,0.00,22.9,23.1,00.0,31.0,24.8,13.3,0000.0,0006.58,0011.68,0005.93
2023-04-22 15:11:00,,0834.4,4.99,0.00,22.9,22.9,00.0,31.1,24.7,13.4,0000.0,0006.56,0011.58,0005.94
2023-04-22 15:12:00,,0834.4,5.01,0.00,22.9,22.6,00.0,31.1,24.6,13.3,0000.0,0006.57,0011.19,0005.96
2023-04-22 15:13:00,,0834.5,5.01,0.00,22.9,22.4,00.0,31.1,24.5,13.3,0000.0,0006.60,0011.00,0005.97
2023-04-22 15:14:00,,0834.4,4.98,0.00,22.9,22.1,00.0,31.2,24.4,13.3,0000.0,0006.64,0011.08,0005.98
2023-04-22 15:15:00,,0834.4,5.00,0.00,22.9,22.0,00.0,31.2,24.4,13.3,0000.0,0006.61,0011.13,0005.99
2023-04-22 15:16:00,,0834.4,5.00,0.00,22.9,21.8,00.0,31.2,24.4,13.4,0000.0,0006.61,0011.19,0006.00
2023-04-22 15:17:00,,0834.3,5.00,0.00,22.8,21.6,00.0,31.2,24.4,13.3,0000.0,0006.65,0011.27,0006.02
2023-04-22 15:18:00,,0834.3,5.01,0.00,22.8,21.5,00.0,31.2,24.4,13.4,0000.0,0006.68,0010.84,0006.04
2023-04-22 15:19:00,,0834.3,5.00,0.00,22.8,21.5,00.0,31.2,24.3,13.5,0000.0,0006.72,0009.93,0006.05
2023-04-22 15:20:00,,0834.3,4.99,0.00,22.8,21.4,00.0,31.2,24.3,13.4,0000.0,0006.73,0009.77,0006.06
2023-04-22 15:21:00,,0834.3,4.99,0.00,22.8,21.3,00.0,31.2,24.2,13.3,0000.0,0006.75,0009.82,0006.08
2023-04-22 15:22:00,,0834.3,5.00,0.00,22.8,21.3,00.0,31.2,24.2,13.2,0000.0,0006.78,0009.92,0006.09
2023-04-22 15:23:00,,0834.3,5.00,0.00,22.7,21.2,00.0,31.2,24.2,13.3,0000.0,0006.80,0009.94,0006.09
2023-04-22 15:24:00,,0834.3,5.01,0.00,22.7,21.1,00.0,31.2,24.2,13.4,0000.0,0006.81,0009.96,0006.10
2023-04-22 15:25:00,,0834.4,5.00,0.00,22.7,21.1,00.0,31.2,24.2,13.3,0000.0,0006.83,0010.00,0006.10
2023-04-22 15:26:00,,0834.4,5.01,0.00,22.7,21.0,00.0,31.1,24.1,13.4,0000.0,0006.84,0009.86,0006.11
2023-04-22 15:27:00,,0834.4,5.00,0.00,22.7,21.0,00.0,31.1,24.1,13.5,0000.0,0006.86,0009.72,0006.11
2023-04-22 15:28:00,,0834.7,4.99,0.00,22.6,21.0,00.0,31.1,24.1,13.6,0000.0,0006.87,0009.74,0006.11
2023-04-22 15:29:00,,0834.6,5.00,0.00,22.6,21.0,00.0,31.1,24.1,13.5,0000.0,0006.84,0009.66,0006.11
2023-04-22 15:30:00,,0834.3,5.00,0.00,22.6,21.0,00.0,31.1,24.1,13.5,0000.0,0006.83,0009.66,0006.11
2023-04-22 15:31:00,,0834.5,5.00,0.00,22.6,20.9,00.0,31.1,24.1,13.5,0000.0,0006.82,0009.67,0006.11
2023-04-22 15:32:00,,0834.4,5.00,0.00,22.6,20.9,00.0,31.1,24.1,13.6,0000.0,0006.85,0009.69,0006.12
2023-04-22 15:33:00,,0834.4,5.01,0.00,22.6,21.2,00.0,31.0,24.2,13.8,0000.0,0006.85,0009.71,0006.11
2023-04-22 15:34:00,,0834.6,5.01,0.00,22.7,22.3,00.0,31.0,24.6,13.8,0000.0,0006.83,0009.65,0006.11
2023-04-22 15:35:00,,0834.3,5.00,0.00,22.8,23.0,00.0,31.0,24.8,13.5,0000.0,0006.82,0009.55,0006.13
2023-04-22 15:36:00,,0834.5,4.99,0.00,22.9,22.8,00.0,31.1,24.7,13.4,0000.0,0006.80,0009.50,0006.12
2023-04-22 15:37:00,,0834.4,4.99,0.00,22.9,22.5,00.0,31.1,24.6,13.5,0000.0,0006.83,0009.64,0006.13
2023-04-22 15:38:00,,0834.5,5.00,0.00,22.9,22.2,00.0,31.2,24.5,13.5,0000.0,0006.85,0009.75,0006.15
2023-04-22 15:39:00,,0834.4,5.00,0.00,22.9,22.0,00.0,31.2,24.4,13.5,0000.0,0006.83,0009.64,0006.16
2023-04-22 15:40:00,,0834.6,5.00,0.00,22.8,21.8,00.0,31.2,24.4,13.6,0000.0,0006.81,0009.63,0006.16
2023-04-22 15:41:00,,0834.5,4.99,0.00,22.8,21.7,00.0,31.2,24.3,13.7,0000.0,0006.80,0009.58,0006.17
2023-04-22 15:42:00,,0834.3,5.00,0.00,22.8,21.5,00.0,31.2,24.3,13.8,0000.0,0006.81,0009.61,0006.17
2023-04-22 15:43:00,,0834.3,5.01,0.00,22.8,21.4,00.0,31.2,24.3,13.7,0000.0,0006.82,0009.66,0006.17
2023-04-22 15:44:00,,0834.5,5.00,0.00,22.8,21.3,00.0,31.2,24.2,13.9,0000.0,0006.81,0009.80,0006.18
2023-04-22 15:45:00,,0834.3,5.00,0.00,22.7,21.2,00.0,31.2,24.2,13.8,0000.0,0006.86,0010.01,0006.18
2023-04-22 15:46:00,,0834.3,5.00,0.00,22.7,21.1,00.0,31.2,24.1,13.7,0000.0,0006.86,0010.06,0006.18
2023-04-22 15:47:00,,0834.5,5.00,0.00,22.7,21.1,00.0,31.1,24.1,13.7,0000.0,0006.83,0009.98,0006.17
2023-04-22 15:48:00,,0834.6,4.99,0.00,22.6,21.0,00.0,31.1,24.1,13.8,0000.0,0006.80,0009.84,0006.17
2023-04-22 15:49:00,,0834.6,5.00,0.00,22.6,21.0,00.0,31.1,24.0,13.7,0000.0,0006.78,0009.79,0006.15
2023-04-22 15:50:00,,0834.4,5.00,0.00,22.6,21.0,00.0,31.1,24.1,13.8,0000.0,0006.77,0009.88,0006.13
2023-04-22 15:51:00,,0834.3,5.02,0.00,22.7,21.6,00.0,31.0,24.4,13.9,0000.0,0006.80,0009.94,0006.12
2023-04-22 15:52:00,,0834.4,5.01,0.00,22.8,22.7,00.0,31.0,24.8,13.8,0000.0,0006.79,0009.91,0006.10
2023-04-22 15:53:00,,0834.4,5.00,0.00,23.0,23.5,00.0,31.0,25.0,13.7,0000.0,0006.79,0009.92,0006.09
2023-04-22 15:54:00,,0834.7,4.99,0.00,23.0,23.3,00.0,31.1,24.8,13.6,0000.0,0006.79,0009.97,0006.06
2023-04-22 15:55:00,,0834.5,4.99,0.00,23.0,22.9,00.0,31.2,24.7,13.5,0000.0,0006.80,0009.90,0006.05
2023-04-22 15:56:00,,0834.4,5.00,0.00,23.0,22.6,00.0,31.2,24.7,13.5,0000.0,0006.77,0009.69,0006.03
2023-04-22 15:57:00,,0834.3,5.01,0.00,23.0,22.3,00.0,31.2,24.6,13.4,0000.0,0006.74,0009.61,0006.02
2023-04-22 15:58:00,,0834.6,5.00,0.00,22.9,22.1,00.0,31.3,24.5,13.5,0000.0,0006.76,0009.70,0006.01
2023-04-22 15:59:00,,0834.2,4.99,0.00,22.9,21.8,00.0,31.3,24.4,13.5,0000.0,0006.77,0009.83,0005.99
